Regional Weather Roundup
Issued by NWS

Home | Current Version | Previous Version | Text Only | Print | Product List | Glossary On
Versions: 1 2 3 4 5 6 7 8 9 10 11 12 13 14 15 16 17 18 19 20 21 22 23 24 25 26 27 28 29 30 31 32 33 34 35 36 37 38 39 40 41 42 43 44 45 46 47 48 49 50
000
ASUS43 KBIS 300510
RWRND

NORTH DAKOTA REGIONAL WEATHER ROUNDUP
NATIONAL WEATHER SERVICE BISMARCK ND
1200 AM CDT SAT JUL 30 2016

NOTE: "FAIR" INDICATES FEW OR NO CLOUDS BELOW 12,000 FEET WITH NO
SIGNIFICANT WEATHER AND/OR OBSTRUCTIONS TO VISIBILITY.


NDZ001>003-009>011-017-300600-
NORTHWEST NORTH DAKOTA

CITY           SKY/WX    TMP DP  RH WIND       PRES   REMARKS
WILLISTON      CLEAR     66  57  72 CALM      29.96S
MINOT          CLEAR     68  61  78 SE5       29.95F
MINOT AFB      CLEAR     62  59  87 CALM      29.94S
$$

NDZ018>021-031>035-040>046-300600-
SOUTHWEST NORTH DAKOTA

CITY           SKY/WX    TMP DP  RH WIND       PRES   REMARKS
BISMARCK       CLOUDY    66  61  84 NE6       29.97S
DICKINSON      CLEAR     61  58  90 SE7       29.96F
GARRISON         N/A     67  64  90 SE3       29.96S
HETTINGER ARPT CLEAR     64  58  80 SE3       29.99S
$$

NDZ004>008-012>016-024-026-027-054-300600-
NORTHEAST NORTH DAKOTA

CITY           SKY/WX    TMP DP  RH WIND       PRES   REMARKS
GRAND FORKS    CLEAR     64  57  78 SE3       29.98F
GRND FRKS AFB  CLEAR     61  58  89 S3        29.99F
DEVILS LAKE    CLOUDY    69  63  81 SE7       29.99F
$$

NDZ022-023-025-028>030-036>039-047>053-300600-
SOUTHEAST NORTH DAKOTA

CITY           SKY/WX    TMP DP  RH WIND       PRES   REMARKS
FARGO          CLOUDY    70  63  78 S7        30.00F
JAMESTOWN      CLEAR     65  62  90 SE6       30.00S
$$





USA.gov is the U.S. government's official web portal to all federal, state and local government web resources and services.